Location: Unspecified
(40.7945°N, 0.0000°E)
Time: 01:59:32
(UTC+00:00)

Altair - Pass Details

Date: 29 January 2021
Orbit: 1501 x 1682 km, 47.2° (Epoch: 01 March)

Event Time Altitude Azimuth Distance (km) Brightness Sun altitude
Rises 04:55:35 0° 254° (WSW) 4,840 - -26.1°
Reaches altitude 10° 04:58:42 10° 256° (WSW) 3,876 - -25.5°
Exits shadow 05:04:13 39° 266° (W) 2,332 7.9 -24.4°
Maximum altitude 05:08:41 73° 341° (NNW) 1,737 7.6 -23.6°
Drops below altitude 10° 05:18:54 10° 66° (ENE) 3,948 10.5 -21.7°
Sets 05:22:06 0° 69° (ENE) 4,934 11.2 -21.1°
